MCBH Kaneohe Bay, HI

12:06 PM HST on December 06, 2016 (GMT -1000)
Kaneohe Bay Marine Corps Air Facility

Weather History for PHNG - February, 2013

Change the Weather History Date:

Sunday, February 3, 2013

  Actual Average Record
Temperature  
Mean Temperature 74 °F -  
Max Temperature 80 °F 75 °F 84 °F (2015)
Min Temperature 69 °F 66 °F 57 °F (1998)
Cooling Degree Days 10    
Growing Degree Days 24 (Base 50)    
Moisture  
Dew Point 58 °F    
Average Humidity 59    
Maximum Humidity 70    
Minimum Humidity 47    
Precipitation  
Precipitation 0.00 in - - ()
Sea Level Pressure  
Sea Level Pressure 30.15 in    
Wind  
Wind Speed 6 mph (ENE)    
Max Wind Speed 12 mph    
Max Gust Speed 20 mph    
Visibility 10 miles    
Events      
Averages and records for this station are not official NWS values.
T = Trace of Precipitation, MM = Missing Value Source: NWS Daily Summary

Daily Weather History Graph

Daily Weather History Graph

Search for Another Location

Airport or City:

Trip Planner

Search our weather history database for the weather conditions in past years. The results will help you decide how hot, cold, wet, or windy it might be!

Date:

Astronomy

Feb. 03, 2013 Rise Set
Actual Time 7:07 AM HST 6:22 PM HST
Civil Twilight 6:44 AM HST 6:45 PM HST
Nautical Twilight 6:17 AM HST 7:12 PM HST
Astronomical Twilight 5:51 AM HST 7:38 PM HST
Moon 12:45 AM HST (2/3) 12:13 PM HST (2/3)
Length of Visible Light 12h 01m
Length of Day
11h 14m
Last Quarter, 46% of the Moon is Illuminated
Feb 3
Last Quarter
Feb 9
New
Feb 17
First Quarter
Feb 25
Full
Mar 4
Last Quarter

Hourly Weather History & Observations

Time (HST) Temp. Heat Index Dew Point Humidity Pressure Visibility Wind Dir Wind Speed Gust Speed Precip Events Conditions
12:57 AM 69.8 °F - 57.9 °F 66% 30.14 in 10.0 mi East 5.8 mph - N/A   Overcast
1:57 AM 69.1 °F - 59.0 °F 70% 30.13 in 10.0 mi East 4.6 mph - N/A   Scattered Clouds
2:57 AM 69.8 °F - 59.0 °F 68% 30.12 in 10.0 mi Calm Calm - N/A   Mostly Cloudy
3:57 AM - - - N/A% 30.12 in 10.0 mi East 4.6 mph - N/A   Overcast
4:57 AM 69.8 °F - 59.0 °F 68% 30.13 in 10.0 mi ENE 4.6 mph - N/A   Overcast
5:57 AM 69.8 °F - 57.9 °F 66% 30.14 in 10.0 mi Calm Calm - N/A   Overcast
6:57 AM 69.8 °F - 57.9 °F 66% 30.16 in 10.0 mi ENE 6.9 mph - N/A   Overcast
7:57 AM 71.6 °F - 57.9 °F 62% 30.18 in 10.0 mi NE 4.6 mph - N/A   Overcast
8:57 AM 71.6 °F - 57.9 °F 62% 30.19 in 10.0 mi ENE 6.9 mph - N/A   Overcast
9:57 AM 69.8 °F - 57.0 °F 64% 30.20 in 10.0 mi Variable 5.8 mph - N/A   Overcast
10:57 AM 76.1 °F - 57.9 °F 53% 30.19 in 10.0 mi ENE 4.6 mph - N/A   Overcast
11:57 AM 77.0 °F - 57.9 °F 52% 30.16 in 10.0 mi ENE 9.2 mph - N/A   Mostly Cloudy
12:57 PM 78.8 °F - 57.9 °F 49% 30.14 in 10.0 mi ENE 6.9 mph 16.1 mph N/A   Mostly Cloudy
1:57 PM 78.8 °F - 57.9 °F 49% 30.12 in 10.0 mi ENE 6.9 mph - N/A   Partly Cloudy
2:57 PM 78.8 °F - 57.0 °F 47% 30.10 in 10.0 mi NE 9.2 mph - N/A   Mostly Cloudy
3:57 PM 80.1 °F 80.7 °F 59.0 °F 48% 30.12 in 10.0 mi NE 10.4 mph - N/A   Mostly Cloudy
4:57 PM - - - N/A% 30.13 in 10.0 mi NE 10.4 mph - N/A   Mostly Cloudy
5:57 PM 77.0 °F - 57.9 °F 52% 30.14 in 10.0 mi NE 9.2 mph 17.3 mph N/A   Mostly Cloudy
6:57 PM 74.1 °F - 57.9 °F 57% 30.15 in 10.0 mi ENE 8.1 mph 17.3 mph N/A   Overcast
7:57 PM 73.4 °F - 57.0 °F 56% 30.16 in 10.0 mi ENE 9.2 mph 19.6 mph N/A   Overcast
8:57 PM 71.6 °F - 57.0 °F 60% 30.17 in 10.0 mi ENE 9.2 mph 18.4 mph N/A   Overcast
9:57 PM 71.6 °F - 57.0 °F 60% 30.17 in 10.0 mi ENE 11.5 mph 19.6 mph N/A   Overcast
10:57 PM 69.8 °F - 55.9 °F 61% 30.17 in 10.0 mi NE 9.2 mph 18.4 mph N/A   Overcast